| time (UTC) | temp F | wind direction | speed MPH | gust MPH | rain 1hr in | rain 24hr in | rain mn in | humidity % | barometer mb |
| 20260508030213 | 59 | 2 | 0.0 | 0.0 | 0.00 | 0.37 | 0.37 | 92 | 1035.1 |
| 20260508025710 | 59 | 2 | 0.0 | 0.0 | 0.00 | 0.37 | 0.37 | 91 | 1035.3 |
| 20260508025207 | 60 | 3 | 0.0 | 0.0 | 0.00 | 0.37 | 0.37 | 91 | 1035.3 |
| 20260508024702 | 60 | 3 | 0.0 | 0.0 | 0.00 | 0.37 | 0.37 | 91 | 1035.1 |
| 20260508024200 | 60 | 3 | 0.0 | 0.0 | 0.00 | 0.37 | 0.37 | 92 | 1035.1 |
| 20260508023656 | 60 | 3 | 0.0 | 0.0 | 0.00 | 0.37 | 0.37 | 92 | 1035.0 |
| 20260508023154 | 60 | 3 | 0.0 | 0.0 | 0.00 | 0.37 | 0.37 | 92 | 1035.0 |
| 20260508022649 | 60 | 2 | 0.0 | 0.0 | 0.00 | 0.37 | 0.37 | 92 | 1034.8 |
| 20260508022147 | 60 | 2 | 0.0 | 0.0 | 0.00 | 0.37 | 0.37 | 92 | 1034.7 |
| 20260508021643 | 60 | 1 | 0.0 | 0.0 | 0.00 | 0.37 | 0.37 | 92 | 1034.7 |
| 20260508021138 | 60 | 1 | 0.0 | 0.0 | 0.00 | 0.37 | 0.37 | 93 | 1035.0 |
| 20260508020636 | 60 | 12 | 0.0 | 0.0 | 0.00 | 0.37 | 0.37 | 93 | 1034.8 |
| 20260508020134 | 60 | 12 | 0.0 | 0.0 | 0.00 | 0.37 | 0.37 | 92 | 1034.6 |
| 20260508015631 | 60 | 12 | 0.0 | 0.0 | 0.00 | 0.37 | 0.37 | 92 | 1034.8 |
| 20260508015128 | 60 | 12 | 0.0 | 0.0 | 0.00 | 0.37 | 0.37 | 92 | 1034.4 |
| 20260508014624 | 60 | 12 | 0.0 | 0.0 | 0.00 | 0.37 | 0.37 | 93 | 1034.4 |
| 20260508014121 | 60 | 12 | 0.0 | 0.0 | 0.00 | 0.37 | 0.37 | 93 | 1034.4 |
| 20260508013617 | 60 | 12 | 0.0 | 0.0 | 0.00 | 0.37 | 0.37 | 92 | 1034.4 |
| 20260508013114 | 61 | 13 | 0.0 | 0.0 | 0.00 | 0.37 | 0.37 | 92 | 1034.4 |
| 20260508012611 | 61 | 13 | 0.0 | 0.0 | 0.00 | 0.37 | 0.37 | 92 | 1034.5 |
| 20260508012108 | 61 | 13 | 0.0 | 0.0 | 0.00 | 0.37 | 0.37 | 91 | 1034.3 |
| 20260508011607 | 61 | 13 | 0.0 | 0.0 | 0.00 | 0.37 | 0.37 | 90 | 1034.2 |
| 20260508011104 | 61 | 13 | 0.0 | 0.0 | 0.00 | 0.37 | 0.37 | 89 | 1034.5 |
| 20260508010600 | 61 | 13 | 0.0 | 0.0 | 0.00 | 0.37 | 0.37 | 88 | 1034.6 |
| 20260508010058 | 62 | 12 | 0.0 | 0.0 | 0.00 | 0.37 | 0.37 | 89 | 1034.4 |
| 20260508005554 | 62 | 13 | 0.0 | 0.0 | 0.00 | 0.37 | 0.37 | 89 | 1034.5 |
| 20260508005051 | 62 | 13 | 0.0 | 0.0 | 0.00 | 0.37 | 0.37 | 89 | 1034.1 |
| 20260508004547 | 63 | 16 | 0.0 | 0.0 | 0.00 | 0.37 | 0.37 | 89 | 1034.2 |
| 20260508004044 | 63 | 16 | 0.0 | 0.0 | 0.00 | 0.37 | 0.37 | 89 | 1034.0 |
| 20260508003540 | 63 | 16 | 0.0 | 0.0 | 0.00 | 0.37 | 0.37 | 89 | 1034.2 |
| 20260508003038 | 64 | 16 | 0.0 | 0.0 | 0.00 | 0.37 | 0.37 | 89 | 1034.0 |
| 20260508002534 | 64 | 16 | 0.0 | 0.0 | 0.00 | 0.37 | 0.37 | 89 | 1034.2 |
| 20260508002031 | 65 | 16 | 0.0 | 0.0 | 0.00 | 0.37 | 0.37 | 88 | 1034.1 |
| 20260508001527 | 65 | 16 | 0.0 | 0.0 | 0.00 | 0.37 | 0.37 | 88 | 1034.0 |
| 20260508001023 | 66 | 16 | 0.0 | 0.0 | 0.00 | 0.37 | 0.37 | 87 | 1034.1 |
| 20260508000519 | 66 | 17 | 0.0 | 0.0 | 0.00 | 0.37 | 0.37 | 86 | 1034.0 |
| 20260508000017 | 66 | 18 | 0.0 | 0.0 | 0.00 | 0.37 | 0.37 | 85 | 1033.9 |
| 20260507235513 | 67 | 17 | 0.0 | 0.0 | 0.00 | 0.37 | 0.37 | 85 | 1033.8 |
| 20260507235011 | 67 | 17 | 0.0 | 0.0 | 0.00 | 0.37 | 0.37 | 84 | 1033.9 |
| 20260507234507 | 67 | 17 | 0.0 | 0.0 | 0.00 | 0.37 | 0.37 | 84 | 1033.5 |
| 20260507234004 | 67 | 17 | 0.0 | 0.0 | 0.00 | 0.37 | 0.37 | 84 | 1033.4 |
| 20260507233500 | 67 | 18 | 0.0 | 0.0 | 0.00 | 0.37 | 0.37 | 86 | 1033.8 |
| 20260507232959 | 68 | 17 | 0.0 | 0.0 | 0.00 | 0.37 | 0.37 | 86 | 1033.6 |
| 20260507232455 | 68 | 18 | 0.0 | 0.0 | 0.00 | 0.37 | 0.37 | 85 | 1033.4 |
| 20260507231953 | 68 | 34 | 0.0 | 0.0 | 0.00 | 0.37 | 0.37 | 82 | 1033.4 |
| 20260507231448 | 68 | 33 | 0.0 | 0.0 | 0.00 | 0.37 | 0.37 | 82 | 1033.4 |
| 20260507230946 | 68 | 22 | 0.0 | 0.0 | 0.00 | 0.37 | 0.37 | 82 | 1033.4 |
| 20260507230443 | 68 | 47 | 0.0 | 0.0 | 0.00 | 0.37 | 0.37 | 80 | 1033.4 |
| 20260507225938 | 68 | 46 | 0.0 | 0.0 | 0.00 | 0.37 | 0.37 | 82 | 1033.3 |
| 20260507225434 | 68 | 46 | 0.0 | 0.0 | 0.00 | 0.37 | 0.37 | 82 | 1033.3 |
| 20260507224931 | 68 | 11 | 0.0 | 0.0 | 0.00 | 0.37 | 0.37 | 83 | 1033.3 |
| 20260507224427 | 68 | 11 | 0.0 | 0.0 | 0.00 | 0.37 | 0.37 | 83 | 1033.5 |
| 20260507223924 | 68 | 10 | 0.0 | 0.0 | 0.00 | 0.37 | 0.37 | 84 | 1033.3 |
| 20260507223414 | 68 | 10 | 0.0 | 0.0 | 0.00 | 0.37 | 0.37 | 84 | 1033.1 |
| 20260507222911 | 68 | 43 | 0.0 | 0.0 | 0.00 | 0.37 | 0.37 | 79 | 1033.2 |
| 20260507222408 | 69 | 58 | 0.0 | 0.0 | 0.00 | 0.37 | 0.37 | 79 | 1033.0 |
| 20260507221905 | 69 | 47 | 0.0 | 0.0 | 0.00 | 0.37 | 0.37 | 77 | 1033.2 |
| 20260507221402 | 70 | 167 | 0.0 | 0.0 | 0.00 | 0.37 | 0.37 | 77 | 1033.5 |
| 20260507220857 | 71 | 61 | 0.0 | 0.0 | 0.00 | 0.37 | 0.37 | 75 | 1033.3 |
| 20260507220356 | 72 | 146 | 0.0 | 1.0 | 0.00 | 0.37 | 0.37 | 74 | 1033.1 |
| 20260507215852 | 71 | 126 | 0.0 | 0.0 | 0.00 | 0.37 | 0.37 | 72 | 1033.2 |
| 20260507215349 | 70 | 37 | 0.0 | 0.0 | 0.00 | 0.37 | 0.37 | 76 | 1033.2 |
| 20260507214846 | 71 | 112 | 0.0 | 0.0 | 0.00 | 0.37 | 0.37 | 76 | 1033.1 |
| 20260507214343 | 71 | 75 | 0.0 | 0.0 | 0.00 | 0.37 | 0.37 | 73 | 1033.2 |
| 20260507213838 | 71 | 15 | 0.0 | 0.0 | 0.00 | 0.37 | 0.37 | 78 | 1033.0 |
| 20260507213335 | 71 | 178 | 2.0 | 2.0 | 0.00 | 0.37 | 0.37 | 75 | 1033.0 |
| 20260507212832 | 71 | 21 | 0.0 | 0.0 | 0.00 | 0.37 | 0.37 | 78 | 1032.8 |
| 20260507212328 | 70 | 36 | 0.0 | 0.0 | 0.00 | 0.37 | 0.37 | 79 | 1033.1 |
| 20260507211825 | 69 | 116 | 0.0 | 0.0 | 0.00 | 0.37 | 0.37 | 76 | 1032.9 |
| 20260507211322 | 69 | 15 | 1.0 | 2.0 | 0.00 | 0.37 | 0.37 | 78 | 1032.9 |
| 20260507210818 | 70 | 47 | 0.0 | 0.0 | 0.00 | 0.37 | 0.37 | 81 | 1033.0 |
| 20260507210316 | 70 | 159 | 1.0 | 2.0 | 0.00 | 0.37 | 0.37 | 75 | 1032.6 |
| 20260507205811 | 70 | 15 | 0.0 | 0.0 | 0.00 | 0.37 | 0.37 | 80 | 1032.9 |
| 20260507205309 | 69 | 173 | 0.0 | 0.0 | 0.00 | 0.37 | 0.37 | 75 | 1032.7 |
| 20260507204805 | 70 | 41 | 0.0 | 0.0 | 0.00 | 0.37 | 0.37 | 76 | 1033.1 |
| 20260507204303 | 70 | 169 | 1.0 | 1.0 | 0.00 | 0.37 | 0.37 | 75 | 1033.0 |
| 20260507203800 | 70 | 49 | 0.0 | 0.0 | 0.00 | 0.37 | 0.37 | 78 | 1033.0 |
| 20260507203258 | 69 | 205 | 0.0 | 0.0 | 0.00 | 0.37 | 0.37 | 80 | 1033.2 |
| 20260507202754 | 69 | 208 | 0.0 | 0.0 | 0.00 | 0.37 | 0.37 | 80 | 1033.3 |
| 20260507202250 | 69 | 351 | 0.0 | 1.0 | 0.00 | 0.37 | 0.37 | 81 | 1033.4 |
| 20260507201745 | 70 | 59 | 0.0 | 0.0 | 0.00 | 0.37 | 0.37 | 77 | 1033.2 |
| 20260507201242 | 70 | 75 | 0.0 | 0.0 | 0.00 | 0.37 | 0.37 | 76 | 1033.3 |
| 20260507200738 | 70 | 36 | 0.0 | 0.0 | 0.00 | 0.37 | 0.37 | 78 | 1033.4 |
| 20260507200234 | 71 | 58 | 0.0 | 0.0 | 0.00 | 0.37 | 0.37 | 75 | 1033.4 |
| 20260507195730 | 72 | 7 | 0.0 | 0.0 | 0.00 | 0.37 | 0.37 | 76 | 1033.3 |
| 20260507195228 | 71 | 213 | 0.0 | 0.0 | 0.00 | 0.37 | 0.37 | 75 | 1033.3 |
| 20260507194725 | 69 | 14 | 0.0 | 0.0 | 0.00 | 0.37 | 0.37 | 79 | 1033.3 |
| 20260507194221 | 69 | 10 | 0.0 | 0.0 | 0.00 | 0.37 | 0.37 | 77 | 1033.7 |
| 20260507193717 | 69 | 91 | 0.0 | 0.0 | 0.00 | 0.37 | 0.37 | 78 | 1033.4 |
| 20260507193214 | 70 | 47 | 0.0 | 0.0 | 0.00 | 0.37 | 0.37 | 78 | 1033.6 |
| 20260507192710 | 69 | 166 | 0.0 | 0.0 | 0.00 | 0.37 | 0.37 | 76 | 1033.4 |
| 20260507192202 | 70 | 176 | 0.0 | 0.0 | 0.00 | 0.37 | 0.37 | 77 | 1033.6 |
| 20260507191657 | 69 | 39 | 0.0 | 0.0 | 0.00 | 0.37 | 0.37 | 81 | 1033.5 |
| 20260507191155 | 68 | 151 | 1.0 | 1.0 | 0.00 | 0.37 | 0.37 | 80 | 1033.6 |
| 20260507190652 | 68 | 354 | 0.0 | 0.0 | 0.00 | 0.37 | 0.37 | 78 | 1033.7 |
| 20260507190150 | 68 | 238 | 0.0 | 1.0 | 0.00 | 0.37 | 0.37 | 81 | 1033.4 |
| 20260507185648 | 68 | 12 | 0.0 | 0.0 | 0.00 | 0.37 | 0.37 | 87 | 1033.6 |
| 20260507185144 | 66 | 12 | 0.0 | 0.0 | 0.00 | 0.37 | 0.37 | 85 | 1033.7 |
| 20260507184642 | 66 | 353 | 0.0 | 0.0 | 0.00 | 0.37 | 0.37 | 88 | 1033.5 |
| 20260507184140 | 65 | 36 | 0.0 | 0.0 | 0.00 | 0.37 | 0.37 | 85 | 1033.6 |
| 20260507183636 | 65 | 47 | 0.0 | 0.0 | 0.00 | 0.37 | 0.37 | 89 | 1033.7 |
| 20260507183134 | 65 | 39 | 0.0 | 0.0 | 0.00 | 0.37 | 0.37 | 90 | 1033.9 |
| 20260507182630 | 64 | 36 | 0.0 | 0.0 | 0.00 | 0.37 | 0.37 | 91 | 1033.9 |
| 20260507182126 | 64 | 35 | 0.0 | 0.0 | 0.00 | 0.37 | 0.37 | 90 | 1034.2 |
| 20260507181623 | 64 | 135 | 0.0 | 0.0 | 0.00 | 0.37 | 0.37 | 91 | 1034.1 |
| 20260507181119 | 64 | 37 | 0.0 | 0.0 | 0.00 | 0.37 | 0.37 | 93 | 1034.1 |
| 20260507180615 | 64 | 43 | 0.0 | 0.0 | 0.00 | 0.37 | 0.37 | 94 | 1034.0 |
| 20260507180113 | 64 | 31 | 0.0 | 1.0 | 0.00 | 0.37 | 0.37 | 95 | 1034.1 |
| 20260507175608 | 64 | 2 | 0.0 | 0.0 | 0.00 | 0.37 | 0.37 | 95 | 1033.9 |
| 20260507175106 | 63 | 171 | 1.0 | 1.0 | 0.00 | 0.37 | 0.37 | 93 | 1034.0 |
| 20260507174603 | 62 | 79 | 0.0 | 0.0 | 0.00 | 0.37 | 0.37 | 94 | 1034.4 |
| 20260507174101 | 62 | 67 | 0.0 | 0.0 | 0.00 | 0.37 | 0.37 | 95 | 1034.3 |
| 20260507173558 | 62 | 24 | 0.0 | 0.0 | 0.00 | 0.37 | 0.37 | 94 | 1034.2 |
| 20260507173055 | 63 | 201 | 1.0 | 2.0 | 0.00 | 0.37 | 0.37 | 95 | 1034.5 |
| 20260507172550 | 62 | 45 | 0.0 | 0.0 | 0.00 | 0.37 | 0.37 | 97 | 1034.6 |
| 20260507172048 | 62 | 46 | 0.0 | 0.0 | 0.00 | 0.37 | 0.37 | 99 | 1034.6 |
| 20260507171543 | 61 | 92 | 0.0 | 0.0 | 0.00 | 0.37 | 0.37 | 99 | 1034.5 |
| 20260507171040 | 62 | 74 | 0.0 | 0.0 | 0.00 | 0.37 | 0.37 | 99 | 1034.5 |
| 20260507170537 | 60 | 98 | 0.0 | 0.0 | 0.00 | 0.37 | 0.37 | 99 | 1034.6 |
| 20260507170034 | 61 | 80 | 0.0 | 0.0 | 0.00 | 0.37 | 0.37 | 99 | 1034.6 |
| 20260507165530 | 61 | 50 | 0.0 | 0.0 | 0.00 | 0.37 | 0.37 | 99 | 1034.7 |
| 20260507165026 | 60 | 43 | 0.0 | 0.0 | 0.00 | 0.37 | 0.37 | 99 | 1034.7 |
| 20260507164523 | 60 | 128 | 0.0 | 1.0 | 0.00 | 0.37 | 0.37 | 99 | 1035.0 |
| 20260507164020 | 60 | 39 | 0.0 | 0.0 | 0.00 | 0.37 | 0.37 | 99 | 1034.8 |
| 20260507163517 | 60 | 77 | 0.0 | 0.0 | 0.00 | 0.37 | 0.37 | 99 | 1034.6 |
| 20260507163015 | 60 | 136 | 0.0 | 0.0 | 0.00 | 0.37 | 0.37 | 99 | 1034.6 |
| 20260507162509 | 60 | 89 | 0.0 | 0.0 | 0.00 | 0.37 | 0.37 | 99 | 1034.3 |
| 20260507162007 | 60 | 55 | 0.0 | 0.0 | 0.00 | 0.37 | 0.37 | 99 | 1034.4 |
| 20260507161503 | 60 | 186 | 0.0 | 0.0 | 0.00 | 0.37 | 0.37 | 99 | 1034.4 |
| 20260507161000 | 59 | 49 | 0.0 | 0.0 | 0.00 | 0.37 | 0.37 | 99 | 1034.4 |
| 20260507160455 | 59 | 105 | 1.0 | 1.0 | 0.00 | 0.37 | 0.37 | 99 | 1034.3 |
| 20260507155951 | 59 | 66 | 0.0 | 0.0 | 0.00 | 0.37 | 0.37 | 99 | 1034.4 |
| 20260507155448 | 60 | 68 | 0.0 | 1.0 | 0.00 | 0.37 | 0.37 | 99 | 1034.1 |
| 20260507154945 | 60 | 94 | 0.0 | 0.0 | 0.00 | 0.37 | 0.37 | 99 | 1034.2 |
| 20260507154441 | 60 | 147 | 0.0 | 0.0 | 0.00 | 0.37 | 0.37 | 99 | 1034.2 |
| 20260507153939 | 61 | 177 | 1.0 | 2.0 | 0.00 | 0.37 | 0.37 | 99 | 1034.1 |
| 20260507153436 | 61 | 175 | 0.0 | 1.0 | 0.00 | 0.37 | 0.37 | 99 | 1034.1 |
| 20260507152931 | 61 | 43 | 0.0 | 0.0 | 0.00 | 0.37 | 0.37 | 99 | 1034.1 |
| 20260507152428 | 61 | 72 | 0.0 | 0.0 | 0.00 | 0.37 | 0.37 | 99 | 1033.9 |
| 20260507151924 | 61 | 111 | 0.0 | 1.0 | 0.00 | 0.37 | 0.37 | 99 | 1033.9 |
| 20260507151421 | 61 | 50 | 0.0 | 0.0 | 0.00 | 0.37 | 0.37 | 99 | 1033.8 |
| 20260507150917 | 62 | 42 | 0.0 | 0.0 | 0.00 | 0.37 | 0.37 | 99 | 1033.7 |
| 20260507150414 | 61 | 165 | 0.0 | 0.0 | 0.00 | 0.37 | 0.37 | 99 | 1033.6 |
| 20260507145911 | 62 | 182 | 0.0 | 0.0 | 0.00 | 0.37 | 0.37 | 99 | 1033.6 |
| 20260507145407 | 61 | 94 | 0.0 | 0.0 | 0.00 | 0.37 | 0.37 | 99 | 1033.6 |
| 20260507144904 | 61 | 36 | 0.0 | 0.0 | 0.00 | 0.37 | 0.37 | 99 | 1033.7 |
| 20260507144401 | 61 | 63 | 0.0 | 0.0 | 0.00 | 0.37 | 0.37 | 99 | 1033.7 |
| 20260507143857 | 61 | 44 | 0.0 | 0.0 | 0.00 | 0.37 | 0.37 | 99 | 1033.4 |
| 20260507143355 | 62 | 43 | 0.0 | 0.0 | 0.00 | 0.37 | 0.37 | 99 | 1033.4 |
| 20260507142851 | 61 | 47 | 0.0 | 0.0 | 0.00 | 0.37 | 0.37 | 99 | 1033.6 |
| 20260507142347 | 61 | 113 | 0.0 | 0.0 | 0.00 | 0.37 | 0.37 | 99 | 1033.7 |
| 20260507141844 | 61 | 4 | 0.0 | 0.0 | 0.00 | 0.37 | 0.37 | 99 | 1033.5 |
| 20260507141341 | 61 | 46 | 0.0 | 0.0 | 0.00 | 0.37 | 0.37 | 99 | 1033.6 |
| 20260507140837 | 60 | 47 | 0.0 | 0.0 | 0.00 | 0.37 | 0.37 | 99 | 1033.2 |
| 20260507140334 | 61 | 45 | 0.0 | 0.0 | 0.00 | 0.37 | 0.37 | 99 | 1033.3 |
| 20260507135832 | 61 | 51 | 0.0 | 0.0 | 0.00 | 0.37 | 0.37 | 99 | 1033.3 |
| 20260507135329 | 60 | 45 | 0.0 | 0.0 | 0.00 | 0.37 | 0.37 | 99 | 1033.0 |
| 20260507134826 | 60 | 50 | 0.0 | 0.0 | 0.00 | 0.37 | 0.37 | 99 | 1033.1 |
| 20260507134322 | 60 | 47 | 0.0 | 0.0 | 0.00 | 0.37 | 0.37 | 99 | 1033.2 |
| 20260507133818 | 60 | 65 | 0.0 | 0.0 | 0.00 | 0.37 | 0.37 | 99 | 1033.2 |
| 20260507133314 | 60 | 71 | 0.0 | 0.0 | 0.00 | 0.37 | 0.37 | 99 | 1033.3 |
| 20260507132812 | 60 | 60 | 0.0 | 0.0 | 0.00 | 0.37 | 0.37 | 99 | 1033.0 |
| 20260507132308 | 59 | 56 | 0.0 | 0.0 | 0.00 | 0.37 | 0.37 | 99 | 1032.7 |
| 20260507131806 | 60 | 49 | 0.0 | 0.0 | 0.00 | 0.37 | 0.37 | 99 | 1032.6 |
| 20260507131302 | 60 | 50 | 0.0 | 0.0 | 0.00 | 0.37 | 0.37 | 99 | 1033.0 |
| 20260507130759 | 60 | 67 | 0.0 | 0.0 | 0.00 | 0.37 | 0.37 | 99 | 1032.9 |
| 20260507130257 | 60 | 39 | 0.0 | 0.0 | 0.00 | 0.37 | 0.37 | 99 | 1032.8 |
| 20260507125755 | 60 | 36 | 0.0 | 0.0 | 0.00 | 0.37 | 0.37 | 99 | 1032.3 |
| 20260507125253 | 59 | 56 | 0.0 | 0.0 | 0.00 | 0.37 | 0.37 | 99 | 1032.5 |
| 20260507124749 | 59 | 33 | 0.0 | 0.0 | 0.00 | 0.37 | 0.37 | 99 | 1032.4 |
| 20260507124246 | 59 | 45 | 0.0 | 0.0 | 0.00 | 0.37 | 0.37 | 99 | 1032.7 |
| 20260507123744 | 60 | 67 | 0.0 | 0.0 | 0.00 | 0.37 | 0.37 | 99 | 1032.6 |
| 20260507123242 | 60 | 67 | 0.0 | 0.0 | 0.00 | 0.37 | 0.37 | 99 | 1032.4 |
| 20260507122737 | 60 | 69 | 0.0 | 0.0 | 0.00 | 0.37 | 0.37 | 99 | 1032.0 |
| 20260507122233 | 60 | 50 | 0.0 | 0.0 | 0.05 | 0.37 | 0.37 | 99 | 1032.1 |
| 20260507121729 | 60 | 65 | 0.0 | 0.0 | 0.05 | 0.37 | 0.37 | 99 | 1032.0 |
| 20260507121225 | 60 | 40 | 0.0 | 0.0 | 0.00 | 0.36 | 0.36 | 99 | 1031.7 |
| 20260507120721 | 60 | 24 | 0.0 | 0.0 | 0.00 | 0.36 | 0.36 | 99 | 1031.4 |
| 20260507120218 | 59 | 43 | 0.0 | 0.0 | 0.00 | 0.36 | 0.36 | 99 | 1031.5 |
| 20260507115714 | 59 | 43 | 0.0 | 0.0 | 0.00 | 0.36 | 0.36 | 99 | 1031.6 |
| 20260507115210 | 60 | 43 | 0.0 | 0.0 | 0.00 | 0.36 | 0.36 | 99 | 1031.6 |
| 20260507114706 | 60 | 58 | 0.0 | 0.0 | 0.00 | 0.36 | 0.36 | 99 | 1031.6 |
| 20260507114204 | 59 | 20 | 0.0 | 0.0 | 0.00 | 0.36 | 0.36 | 99 | 1031.8 |
| 20260507113701 | 59 | 58 | 0.0 | 0.0 | 0.00 | 0.36 | 0.36 | 99 | 1031.6 |
| 20260507113157 | 59 | 41 | 0.0 | 0.0 | 0.00 | 0.36 | 0.36 | 99 | 1031.6 |
| 20260507112655 | 59 | 43 | 0.0 | 0.0 | 0.00 | 0.36 | 0.36 | 99 | 1031.2 |
| 20260507112152 | 59 | 41 | 0.0 | 0.0 | 0.00 | 0.36 | 0.36 | 99 | 1031.1 |
| 20260507111649 | 60 | 34 | 0.0 | 0.0 | 0.00 | 0.36 | 0.36 | 99 | 1031.2 |
| 20260507111146 | 60 | 53 | 0.0 | 0.0 | 0.00 | 0.36 | 0.36 | 99 | 1031.4 |
| 20260507110642 | 60 | 142 | 1.0 | 2.0 | 0.00 | 0.36 | 0.36 | 99 | 1031.4 |
| 20260507110139 | 60 | 69 | 0.0 | 0.0 | 0.00 | 0.36 | 0.36 | 99 | 1031.6 |
| 20260507105636 | 60 | 224 | 0.0 | 0.0 | 0.00 | 0.36 | 0.36 | 99 | 1031.7 |
| 20260507105131 | 60 | 179 | 0.0 | 0.0 | 0.00 | 0.36 | 0.36 | 99 | 1031.2 |
| 20260507104629 | 61 | 169 | 1.0 | 2.0 | 0.00 | 0.36 | 0.36 | 99 | 1031.0 |
| 20260507104125 | 61 | 122 | 0.0 | 0.0 | 0.00 | 0.36 | 0.36 | 99 | 1030.7 |
| 20260507103621 | 61 | 56 | 0.0 | 0.0 | 0.00 | 0.36 | 0.36 | 99 | 1030.5 |
| 20260507103119 | 61 | 155 | 0.0 | 0.0 | 0.00 | 0.36 | 0.36 | 99 | 1030.4 |
| 20260507102615 | 62 | 52 | 0.0 | 0.0 | 0.00 | 0.36 | 0.36 | 99 | 1030.6 |
| 20260507102111 | 63 | 128 | 0.0 | 0.0 | 0.00 | 0.36 | 0.36 | 99 | 1030.5 |
| 20260507101607 | 63 | 152 | 1.0 | 2.0 | 0.00 | 0.36 | 0.36 | 99 | 1030.5 |
| 20260507101103 | 64 | 168 | 0.0 | 0.0 | 0.00 | 0.36 | 0.36 | 99 | 1030.0 |
| 20260507100600 | 64 | 32 | 0.0 | 0.0 | 0.00 | 0.36 | 0.36 | 99 | 1029.5 |
| 20260507100058 | 64 | 29 | 0.0 | 0.0 | 0.00 | 0.36 | 0.36 | 99 | 1029.8 |
| 20260507095555 | 64 | 29 | 0.0 | 0.0 | 0.00 | 0.36 | 0.36 | 99 | 1030.0 |
| 20260507095047 | 64 | 30 | 0.0 | 0.0 | 0.00 | 0.36 | 0.36 | 99 | 1030.2 |
| 20260507094543 | 64 | 30 | 0.0 | 0.0 | 0.00 | 0.36 | 0.36 | 99 | 1030.0 |
| 20260507094040 | 64 | 29 | 0.0 | 0.0 | 0.00 | 0.36 | 0.36 | 99 | 1029.9 |
| 20260507093537 | 64 | 29 | 0.0 | 0.0 | 0.00 | 0.36 | 0.36 | 99 | 1029.8 |
| 20260507093036 | 64 | 28 | 0.0 | 0.0 | 0.00 | 0.36 | 0.36 | 99 | 1029.9 |
| 20260507092532 | 64 | 11 | 0.0 | 0.0 | 0.00 | 0.36 | 0.36 | 99 | 1029.9 |
| 20260507092029 | 64 | 26 | 0.0 | 0.0 | 0.00 | 0.36 | 0.36 | 99 | 1030.0 |
| 20260507091526 | 64 | 31 | 0.0 | 0.0 | 0.07 | 0.36 | 0.36 | 99 | 1029.7 |
| 20260507091022 | 64 | 359 | 0.0 | 0.0 | 0.14 | 0.36 | 0.36 | 99 | 1029.8 |
| 20260507090518 | 64 | 4 | 0.0 | 0.0 | 0.19 | 0.35 | 0.35 | 99 | 1030.0 |
| 20260507090015 | 65 | 2 | 0.0 | 0.0 | 0.28 | 0.34 | 0.34 | 99 | 1029.7 |
| 20260507085512 | 64 | 1 | 0.0 | 0.0 | 0.71 | 0.32 | 0.32 | 99 | 1029.9 |
| 20260507085009 | 65 | 35 | 0.0 | 0.0 | 0.61 | 0.29 | 0.29 | 99 | 1029.8 |
| 20260507084505 | 65 | 43 | 0.0 | 0.0 | 0.28 | 0.21 | 0.21 | 99 | 1029.9 |
| 20260507084002 | 65 | 44 | 0.0 | 0.0 | 0.24 | 0.20 | 0.20 | 99 | 1029.9 |
| 20260507083458 | 65 | 37 | 0.0 | 0.0 | 0.00 | 0.16 | 0.16 | 99 | 1029.8 |
| 20260507082955 | 65 | 9 | 0.0 | 0.0 | 0.00 | 0.16 | 0.16 | 99 | 1029.6 |
| 20260507082451 | 65 | 6 | 0.0 | 0.0 | 0.00 | 0.16 | 0.16 | 99 | 1029.2 |
| 20260507081948 | 65 | 1 | 0.0 | 0.0 | 0.00 | 0.16 | 0.16 | 99 | 1029.5 |
| 20260507081444 | 66 | 48 | 0.0 | 0.0 | 0.00 | 0.16 | 0.16 | 99 | 1029.5 |
| 20260507080941 | 66 | 48 | 0.0 | 0.0 | 0.00 | 0.16 | 0.16 | 99 | 1029.7 |
| 20260507080437 | 66 | 48 | 0.0 | 0.0 | 0.00 | 0.16 | 0.16 | 99 | 1029.6 |
| 20260507075932 | 66 | 46 | 0.0 | 0.0 | 0.00 | 0.16 | 0.16 | 99 | 1029.4 |
| 20260507075429 | 66 | 45 | 0.0 | 0.0 | 0.07 | 0.16 | 0.16 | 99 | 1029.6 |
| 20260507074926 | 66 | 37 | 0.0 | 0.0 | 0.07 | 0.16 | 0.16 | 99 | 1029.5 |
| 20260507074422 | 66 | 37 | 0.0 | 0.0 | 0.00 | 0.15 | 0.15 | 99 | 1029.5 |
| 20260507073920 | 66 | 38 | 0.0 | 0.0 | 0.12 | 0.15 | 0.15 | 99 | 1029.7 |
| 20260507073416 | 66 | 38 | 0.0 | 0.0 | 0.28 | 0.15 | 0.15 | 99 | 1029.9 |
| 20260507072913 | 66 | 38 | 0.0 | 0.0 | 0.24 | 0.13 | 0.13 | 99 | 1029.7 |
| 20260507072410 | 66 | 47 | 0.0 | 0.0 | 0.07 | 0.10 | 0.10 | 99 | 1029.7 |
| 20260507071903 | 66 | 48 | 0.0 | 0.0 | 0.07 | 0.09 | 0.09 | 99 | 1029.8 |
| 20260507071359 | 66 | 53 | 0.0 | 0.0 | 0.12 | 0.09 | 0.09 | 99 | 1029.3 |
| 20260507070855 | 66 | 147 | 0.0 | 1.0 | 0.17 | 0.08 | 0.08 | 99 | 1029.4 |
| 20260507070353 | 66 | 351 | 1.0 | 1.0 | 0.19 | 0.07 | 0.07 | 99 | 1028.5 |
| 20260507065850 | 66 | 22 | 0.0 | 0.0 | 0.07 | 0.05 | 0.05 | 99 | 1028.3 |
| 20260507065346 | 66 | 21 | 1.0 | 1.0 | 0.00 | 0.04 | 0.04 | 99 | 1029.0 |
| 20260507064844 | 66 | 12 | 0.0 | 0.0 | 0.00 | 0.04 | 0.04 | 99 | 1030.1 |
| 20260507064342 | 66 | 48 | 0.0 | 0.0 | 0.00 | 0.04 | 0.04 | 99 | 1030.7 |
| 20260507063840 | 66 | 48 | 0.0 | 0.0 | 0.00 | 0.04 | 0.04 | 99 | 1030.6 |
| 20260507063336 | 66 | 48 | 0.0 | 0.0 | 0.00 | 0.04 | 0.04 | 99 | 1030.3 |
| 20260507062833 | 66 | 94 | 0.0 | 0.0 | 0.00 | 0.04 | 0.04 | 99 | 1030.1 |
| 20260507062330 | 66 | 43 | 0.0 | 0.0 | 0.00 | 0.04 | 0.04 | 99 | 1030.4 |
| 20260507061828 | 66 | 50 | 0.0 | 0.0 | 0.00 | 0.04 | 0.04 | 99 | 1030.9 |
| 20260507061325 | 66 | 49 | 0.0 | 0.0 | 0.00 | 0.04 | 0.04 | 99 | 1030.5 |
| 20260507060824 | 66 | 51 | 0.0 | 0.0 | 0.00 | 0.04 | 0.04 | 99 | 1030.8 |
| 20260507060320 | 66 | 35 | 0.0 | 0.0 | 0.00 | 0.04 | 0.04 | 99 | 1030.8 |
| 20260507055817 | 66 | 34 | 0.0 | 0.0 | 0.00 | 0.04 | 0.04 | 99 | 1030.7 |
| 20260507055312 | 66 | 35 | 0.0 | 0.0 | 0.00 | 0.04 | 0.04 | 99 | 1030.6 |
| 20260507054809 | 66 | 11 | 0.0 | 0.0 | 0.00 | 0.04 | 0.04 | 99 | 1030.9 |
| 20260507054305 | 66 | 37 | 0.0 | 0.0 | 0.05 | 0.04 | 0.04 | 99 | 1031.1 |
| 20260507053803 | 66 | 42 | 0.0 | 0.0 | 0.05 | 0.04 | 0.04 | 99 | 1031.2 |
| 20260507053300 | 66 | 26 | 0.0 | 0.0 | 0.00 | 0.03 | 0.03 | 99 | 1031.5 |
| 20260507052759 | 66 | 11 | 0.0 | 0.0 | 0.00 | 0.03 | 0.03 | 99 | 1031.3 |
| 20260507052255 | 66 | 11 | 0.0 | 0.0 | 0.07 | 0.03 | 0.03 | 99 | 1031.3 |
| 20260507051753 | 66 | 10 | 0.0 | 0.0 | 0.12 | 0.03 | 0.03 | 99 | 1031.1 |
| 20260507051250 | 66 | 11 | 0.0 | 0.0 | 0.12 | 0.02 | 0.02 | 99 | 1031.3 |
| 20260507050747 | 67 | 359 | 0.0 | 0.0 | 0.07 | 0.01 | 0.01 | 99 | 1030.9 |
| 20260507050243 | 67 | 352 | 0.0 | 0.0 | 0.00 | 0.00 | 0.00 | 99 | 1031.2 |
| 20260507045740 | 67 | 34 | 0.0 | 0.0 | 0.00 | 0.60 | 0.60 | 99 | 1031.0 |
| 20260507045236 | 67 | 33 | 0.0 | 0.0 | 0.00 | 0.60 | 0.60 | 99 | 1031.0 |
| 20260507044734 | 67 | 46 | 0.0 | 0.0 | 0.00 | 0.60 | 0.60 | 99 | 1030.9 |
| 20260507044230 | 67 | 58 | 0.0 | 0.0 | 0.00 | 0.60 | 0.60 | 99 | 1030.9 |
| 20260507043726 | 67 | 61 | 0.0 | 0.0 | 0.00 | 0.60 | 0.60 | 99 | 1030.9 |
| 20260507043223 | 67 | 39 | 0.0 | 0.0 | 0.00 | 0.60 | 0.60 | 99 | 1031.0 |
| 20260507042720 | 67 | 175 | 0.0 | 0.0 | 0.05 | 0.60 | 0.60 | 99 | 1031.1 |
| 20260507042214 | 67 | 178 | 0.0 | 0.0 | 0.05 | 0.60 | 0.60 | 99 | 1031.2 |
| 20260507041712 | 67 | 91 | 0.0 | 0.0 | 0.14 | 0.59 | 0.59 | 99 | 1031.7 |
| 20260507041209 | 67 | 26 | 0.0 | 0.0 | 0.26 | 0.59 | 0.59 | 99 | 1031.6 |
| 20260507040706 | 67 | 167 | 0.0 | 0.0 | 0.24 | 0.58 | 0.58 | 99 | 1031.8 |
| 20260507040202 | 67 | 346 | 0.0 | 0.0 | 0.12 | 0.55 | 0.55 | 99 | 1030.6 |
| 20260507035658 | 67 | 149 | 0.0 | 0.0 | 0.24 | 0.54 | 0.54 | 99 | 1030.6 |
| 20260507035154 | 67 | 29 | 0.0 | 0.0 | 0.28 | 0.53 | 0.53 | 99 | 1030.6 |
| 20260507034651 | 67 | 83 | 0.0 | 0.0 | 0.28 | 0.51 | 0.51 | 99 | 1030.8 |
| 20260507034148 | 67 | 16 | 0.0 | 0.0 | 0.19 | 0.48 | 0.48 | 99 | 1031.0 |
| 20260507033647 | 66 | 153 | 0.0 | 0.0 | 0.07 | 0.46 | 0.46 | 99 | 1031.0 |
| 20260507033143 | 67 | 28 | 0.0 | 0.0 | 0.07 | 0.45 | 0.45 | 99 | 1031.6 |
| 20260507032641 | 66 | 22 | 0.0 | 0.0 | 0.07 | 0.45 | 0.45 | 99 | 1030.7 |
| 20260507032137 | 67 | 17 | 0.0 | 0.0 | 0.05 | 0.44 | 0.44 | 99 | 1031.2 |
| 20260507031634 | 67 | 7 | 0.0 | 0.0 | 0.12 | 0.44 | 0.44 | 99 | 1031.8 |
| 20260507031130 | 67 | 9 | 0.0 | 0.0 | 0.12 | 0.43 | 0.43 | 99 | 1032.2 |
| 20260507030627 | 67 | 37 | 0.0 | 0.0 | 0.47 | 0.42 | 0.42 | 99 | 1032.7 |